[Date Prev][Date Next][Thread Prev][Thread Next] - [Date Index][Thread Index][Author Index]
2 Line ISS Keps 4-10 - updated by 6 sec's frm last ones
- Subject: [sarex] 2 Line ISS Keps 4-10 - updated by 6 sec's frm last ones
- From: "Dr Dave Larsen [ PhD ]" <doc@xxxxxxxxxxx>
- Date: Tue, 10 Apr 2001 13:47:52 -0700
ISS
1 25544U 98067A 01100.65453704 .00088495 00000-0 10525-2 0 8578
2 25544 51.5704 69.0524 0012374 261.8584 96.9876 15.60296420136528
----
Via the sarex mailing list at AMSAT.ORG courtesy of AMSAT-NA.
To unsubscribe, send "unsubscribe sarex" to Majordomo@amsat.org
AMSAT Home